[[{"header":{"parameterUnit":"m.s-1","parameterCategory":1,"la1":30.2991,"la2":30.254,"lo1":-89.0895,"lo2":-89.0444,"dy":0.0017,"dx":0.0017,"nx":28,"ny":28,"refTime":"2025-04-10T03:00:00:Z","depth":0,"parameterNumber":2,"parameterNumberName":"U-component_of_WINDS"},"data":[0,0,0,0,0,0,0,0,0,0,0,0,0,0,0,0,0,0,0,0,0,0,0,0,0,0,0,0,0,0,0,0,0,0,0,0,0,0,0,0,0,0,0,0,0,0,0,0,0,0,0,0,0,0,0,0,0,0,0.9281,0.9281,0,0.9269,0.9269,0.9269,0.9177,0.9175,0.9173,0.9171,0.9168,0.917,0.9172,0,0,0,0,0,0,0,0,0,0,0,0,0,0.9232,0.9233,0.9281,0.9281,0.9281,0.9269,0.9269,0.9269,0.9178,0.9175,0.9172,0.917,0.9168,0.917,0.9172,0,0,0,0,0,0,0,0,0,0,0,0,0,0.924,0.9233,0.9281,0.9233,0.9229,0.9269,0.9269,0.9269,0.9178,0.9175,0.9171,0.9168,0.9167,0.917,0.9173,0.9261,0,0,0.9182,0.9184,0,0,0,0,0,0,0,0,0.924,0.9242,0.924,0.9237,0.9232,0.9221,0.9251,0.9267,0.9179,0.9198,0.917,0.9167,0.9189,0.919,0.9196,0.9261,0.9261,0.9183,0.9185,0.9186,0.9187,0,0,0,0,0,0,0,0.9239,0.9242,0.9277,0.9241,0.9235,0.9215,0.9213,0.9254,0.9213,0.9196,0.9189,0.9189,0.9186,0.9193,0.9195,0.9261,0.9183,0.9185,0.9187,0.9188,0.9397,0.9401,0,0,0,0,0,0,0.9244,0.9242,0.9277,0.9276,0.9227,0.9219,0.9216,0.9228,0.9212,0.9207,0.9192,0.9184,0.919,0.9192,0.9195,0.9296,0.9186,0.9189,0.9191,0.9394,0.9398,0.9402,0,0,0,0,0,0,0.9243,0.9248,0.9277,0.9257,0.9259,0.9223,0.9238,0.923,0.9236,0.9209,0.9202,0.9205,0.9187,0.919,0.9244,0.9295,0.919,0.9193,0.9389,0.9395,0.94,0.9501,0,0,0,0,0,0,0.9242,0.9248,0.928,0.9259,0.9261,0.9325,0.9241,0.9232,0.9241,0.9231,0.922,0.9215,0.9185,0.924,0.9248,0.9297,0.9195,0.9385,0.9392,0.9398,0.9493,0.9509,0.9523,0,0,0,0,0,0.9241,0.9311,0.9282,0.9286,0.9299,0.9328,0.933,0.929,0.9245,0.9278,0.926,0.9216,0.9288,0.9247,0.9254,0.9306,0.9381,0.939,0.9398,0.9486,0.9506,0.9523,0,0,0,0,0,0,0.9342,0.9307,0.9275,0.9339,0.9337,0.9312,0.9352,0.9312,0.9325,0.9316,0.927,0.9268,0.9329,0.9323,0.9277,0.939,0.9327,0.9337,0.9392,0.941,0.9425,0.9426,0.9198,0,0,0,0,0,0.9371,0.9395,0.9364,0.9424,0.9424,0.9389,0.94,0.9369,0.9367,0.9366,0.9352,0.9354,0.9377,0.9393,0.9413,0.9491,0.9488,0.9531,0.9546,0.9558,0.9568,0.9609,0.9628,0.9429,0.9429,0.9429,0,0,0.9433,0.9417,0.9435,0.9444,0.9439,0.9467,0.9389,0.9422,0.9443,0.9372,0.9421,0.9412,0.941,0.9477,0.9505,0.9473,0.9622,0.9569,0.9579,0.9582,0.9619,0.9638,0.9655,0.9435,0.9434,0.9433,0,0,0.9559,0.9549,0.9597,0.9593,0.9585,0.956,0.9572,0.9553,0.9543,0.9591,0.9538,0.9564,0.9605,0.9605,0.9612,0.9738,0.9698,0.9746,0.9825,0.9865,0.9881,0.9895,0.994,0.9957,0.9755,0.9756,0.9756,0,0.9638,0.9675,0.9628,0.9664,0.967,0.9604,0.9653,0.9653,0.9653,0.966,0.9623,0.9672,0.9667,0.9732,0.9762,0.977,0.9783,0.9747,0.9882,0.9895,0.9907,0.995,0.9967,0.9761,0.9761,0.976,0.976,0,0.9772,0.9799,0.984,0.9837,0.9848,0.9892,0.9853,0.987,0.9839,0.9819,0.9869,0.986,0.9877,0.989,0.9861,0.9952,0.9932,0.989,0.9825,0.9933,0.9972,0.9988,0.977,0.9768,0.9766,0.9765,0,0,0.9962,0.9932,0.9948,0.9946,0.9932,0.9953,0.9994,1.0007,1.0023,1.0025,1.0059,1.0095,1.0055,1.0062,1.0032,1.0068,1.0168,1.0021,1.002,1.0049,1.0268,1.03,1.0319,1.0141,1.0144,1.0147,1.0268,0,1.0083,1.0148,1.0107,1.0179,1.0204,1.0141,1.0177,1.0174,1.0156,1.0177,1.0159,1.0185,1.013,1.0134,1.0166,1.0149,1.0212,1.014,1.0175,1.0177,1.0177,1.034,1.0374,1.0489,1.0283,1.0286,1.0288,0,1.0233,1.0239,1.0313,1.0292,1.0302,1.0334,1.0342,1.0362,1.0358,1.0343,1.035,1.0312,1.0353,1.0289,1.0346,1.0298,1.031,1.0304,1.0307,1.0309,1.0239,1.0347,1.0525,1.0542,1.0311,1.0309,1.0308,0,1.0365,1.0391,1.0438,1.0438,1.0417,1.0441,1.0433,1.0425,1.0435,1.0444,1.045,1.0465,1.0473,1.0486,1.0454,1.041,1.0515,1.0449,1.0505,1.0506,1.0531,1.053,1.0713,1.0539,1.0538,1.0538,1.0538,0,1.0504,1.0552,1.0496,1.0526,1.0578,1.0531,1.0585,1.0571,1.0564,1.0592,1.054,1.0567,1.0522,1.0546,1.0521,1.0572,1.0577,1.0567,1.056,1.0572,1.0573,1.0579,1.057,1.0543,1.0542,1.0541,1.054,0,1.066,1.0624,1.0671,1.0646,1.064,1.068,1.0659,1.0687,1.0665,1.0701,1.0706,1.0674,1.0699,1.0667,1.0691,1.0674,1.0743,1.0724,1.0744,1.0738,1.0797,1.0792,1.0991,1.1015,1.0825,1.0827,1.0828,0,1.0751,1.0786,1.0763,1.0776,1.077,1.0792,1.0801,1.0757,1.077,1.0766,1.0795,1.0814,1.0828,1.0871,1.0852,1.0869,1.085,1.0919,1.0853,1.0863,1.0851,1.085,1.0853,1.0933,1.0935,1.0937,1.0938,0,1.0917,1.0897,1.0911,1.0919,1.093,1.0935,1.0936,1.0951,1.0904,1.0921,1.0944,1.0954,1.0976,1.0997,1.1009,1.1004,1.0965,1.0959,1.0973,1.0985,1.0995,1.099,1.078,1.0955,1.0953,1.0952,1.0951,1.095,1.1043,1.1071,1.1058,1.1076,1.1071,1.1073,1.1097,1.1077,1.1095,1.1106,1.108,1.111,1.1105,1.1116,1.1116,1.114,1.1111,1.1132,1.1137,1.1143,1.1151,1.0991,1.1143,1.1142,1.1142,1.1141,1.1141,0,1.1206,1.1195,1.1211,1.1212,1.1226,1.1184,1.1183,1.1198,1.1224,1.1221,1.1234,1.1261,1.1281,1.1262,1.1279,1.1302,1.1284,1.1308,1.1306,1.1306,1.1176,1.1162,1.1322,1.1322,1.1322,1.1322,1.1322,1.1322,1.1293,1.1337,1.1316,1.1358,1.1347,1.1373,1.1376,1.1379,1.1376,1.1407,1.1422,1.1408,1.14,1.1415,1.1432,1.1426,1.1435,1.1465,1.1453,1.1333,1.1315,1.1298,1.1284,1.1467,1.1467,1.158,1.1581,1.1582]},{"header":{"parameterUnit":"m.s-1","parameterCategory":1,"la1":30.2991,"la2":30.254,"lo1":-89.0895,"lo2":-89.0444,"dy":0.0017,"dx":0.0017,"nx":28,"ny":28,"refTime":"2025-04-10T03:00:00:Z","depth":0,"parameterNumber":3,"parameterNumberName":"V-component_of_WINDS"},"data":[0,0,0,0,0,0,0,0,0,0,0,0,0,0,0,0,0,0,0,0,0,0,0,0,0,0,0,0,0,0,0,0,0,0,0,0,0,0,0,0,0,0,0,0,0,0,0,0,0,0,0,0,0,0,0,0,0,0,2.4448,2.445,0,2.4667,2.4669,2.4672,2.4713,2.4711,2.471,2.4708,2.4924,2.4931,2.4938,0,0,0,0,0,0,0,0,0,0,0,0,0,2.4055,2.4062,2.4448,2.445,2.4453,2.4666,2.4669,2.4672,2.4713,2.4711,2.4709,2.4707,2.4922,2.493,2.4939,0,0,0,0,0,0,0,0,0,0,0,0,0,2.4244,2.4064,2.4447,2.45,2.4507,2.4666,2.4669,2.4673,2.4714,2.4711,2.4709,2.4706,2.4919,2.4929,2.494,2.506,0,0,2.4974,2.4979,0,0,0,0,0,0,0,0,2.4234,2.4259,2.4489,2.4496,2.4504,2.466,2.461,2.4802,2.4714,2.4635,2.4708,2.4705,2.4838,2.4855,2.4902,2.507,2.5079,2.4975,2.4982,2.4986,2.4989,0,0,0,0,0,0,0,2.422,2.4249,2.4534,2.4492,2.4502,2.4509,2.4533,2.4647,2.4748,2.4642,2.4645,2.4671,2.4841,2.4891,2.4907,2.5083,2.4975,2.4984,2.4991,2.4996,2.5355,2.5358,0,0,0,0,0,0,2.4199,2.4238,2.4527,2.4541,2.436,2.4518,2.4545,2.4613,2.4747,2.4765,2.4673,2.4672,2.4873,2.4894,2.4915,2.5062,2.4986,2.4997,2.5003,2.5352,2.5356,2.5359,0,0,0,0,0,0,2.4191,2.4225,2.4518,2.4391,2.4429,2.4527,2.4603,2.4618,2.4668,2.4771,2.4788,2.4706,2.4872,2.4899,2.5023,2.507,2.5002,2.5012,2.5349,2.5353,2.5357,2.5358,0,0,0,0,0,0,2.4179,2.4221,2.4271,2.4392,2.4435,2.4627,2.4606,2.4624,2.4688,2.4689,2.4806,2.4823,2.4872,2.5006,2.5034,2.5084,2.502,2.5345,2.5351,2.5356,2.5354,2.5362,2.5368,0,0,0,0,0,2.4165,2.4261,2.4273,2.4308,2.45,2.4629,2.4654,2.4711,2.4692,2.474,2.4805,2.4819,2.506,2.5019,2.505,2.5104,2.5342,2.5349,2.5356,2.5351,2.536,2.5368,0,0,0,0,0,0,2.4142,2.4278,2.4293,2.4432,2.4519,2.4636,2.47,2.472,2.4812,2.4809,2.4873,2.4899,2.5018,2.5073,2.5025,2.5224,2.5199,2.5213,2.5185,2.5195,2.5202,2.5186,2.5029,0,0,0,0,0,2.4153,2.4251,2.4363,2.4474,2.4517,2.4601,2.4659,2.4696,2.4787,2.4823,2.4898,2.4983,2.5078,2.5139,2.5232,2.5361,2.5385,2.5413,2.542,2.5425,2.5436,2.5505,2.5518,2.5381,2.5381,2.5381,0,0,2.4177,2.4264,2.4321,2.4472,2.4544,2.4639,2.4632,2.4734,2.4804,2.4838,2.4961,2.5017,2.5116,2.5242,2.5302,2.5292,2.5479,2.5434,2.5437,2.5446,2.5513,2.5526,2.5537,2.5385,2.5384,2.5384,0,0,2.427,2.4346,2.4447,2.4518,2.4627,2.4681,2.4705,2.4819,2.4858,2.4982,2.5009,2.5091,2.5254,2.5322,2.5379,2.5492,2.5507,2.552,2.5557,2.5623,2.5634,2.5644,2.5682,2.5695,2.553,2.553,2.553,0,2.4286,2.4434,2.4495,2.4596,2.4659,2.4696,2.4795,2.486,2.4993,2.5034,2.5021,2.5224,2.5294,2.5435,2.5462,2.5507,2.5533,2.5508,2.5628,2.5639,2.5648,2.5686,2.57,2.5531,2.5531,2.5531,2.5531,0,2.4446,2.4548,2.4615,2.4744,2.4815,2.4915,2.4986,2.505,2.5078,2.5132,2.5255,2.5339,2.5448,2.5484,2.5512,2.5628,2.5618,2.5616,2.5592,2.5661,2.5697,2.5712,2.5532,2.5532,2.5531,2.5531,0,0,2.4534,2.4693,2.4717,2.4774,2.4895,2.4973,2.5071,2.518,2.5232,2.532,2.5402,2.5537,2.5535,2.5598,2.5634,2.5692,2.5773,2.5682,2.5685,2.5695,2.5902,2.5903,2.5918,2.5783,2.5786,2.5788,2.5893,0,2.464,2.4822,2.4877,2.5027,2.5119,2.5153,2.5238,2.5318,2.537,2.5453,2.5508,2.5602,2.5593,2.5631,2.569,2.5751,2.5815,2.5744,2.5857,2.586,2.5831,2.5938,2.594,2.6035,2.5907,2.591,2.5912,0,2.479,2.4883,2.5043,2.5149,2.519,2.5266,2.5368,2.5448,2.5538,2.557,2.564,2.567,2.5769,2.5738,2.5873,2.5824,2.5872,2.5908,2.5913,2.5926,2.589,2.5952,2.6067,2.6081,2.5935,2.5933,2.5931,0,2.4836,2.5001,2.5117,2.5165,2.5292,2.5344,2.5398,2.5486,2.5547,2.5634,2.5673,2.577,2.5822,2.5894,2.5948,2.5921,2.6077,2.6052,2.6105,2.6103,2.6137,2.6134,2.626,2.6168,2.6168,2.6168,2.6168,0,2.495,2.5046,2.5139,2.5211,2.5317,2.5377,2.548,2.5535,2.5612,2.5692,2.5725,2.5798,2.5864,2.5944,2.5986,2.609,2.6113,2.614,2.615,2.6138,2.6134,2.6171,2.6165,2.6172,2.6171,2.617,2.6169,0,2.502,2.5087,2.5216,2.5325,2.5354,2.5427,2.5519,2.5587,2.5638,2.5738,2.5764,2.5844,2.594,2.6,2.6122,2.6149,2.6263,2.6271,2.6234,2.6238,2.6287,2.6281,2.6442,2.6464,2.6357,2.6358,2.6359,0,2.5088,2.5163,2.528,2.5337,2.5392,2.5484,2.5545,2.5605,2.5667,2.5773,2.5827,2.5926,2.6008,2.6159,2.6225,2.6317,2.6326,2.6376,2.6341,2.6324,2.6326,2.6321,2.6327,2.6382,2.6383,2.6384,2.6384,0,2.5202,2.523,2.532,2.5421,2.5494,2.5575,2.5656,2.5699,2.5771,2.5838,2.5938,2.6002,2.6126,2.6222,2.6319,2.637,2.6388,2.6394,2.6411,2.64,2.6375,2.6387,2.6249,2.6391,2.639,2.639,2.6389,2.6389,2.5273,2.534,2.5432,2.5529,2.5596,2.567,2.5739,2.5798,2.5884,2.5991,2.6019,2.6123,2.6205,2.6338,2.6391,2.647,2.6463,2.6487,2.6494,2.6499,2.6499,2.6362,2.6487,2.6487,2.6487,2.6487,2.6487,0,2.5387,2.5447,2.5536,2.5648,2.5724,2.5736,2.5824,2.5886,2.5977,2.6055,2.6135,2.6247,2.6339,2.6411,2.6505,2.6553,2.6563,2.6576,2.6573,2.6584,2.6501,2.6477,2.6566,2.6566,2.6566,2.6566,2.6566,2.6566,2.5455,2.5568,2.5607,2.5751,2.581,2.5914,2.5963,2.6029,2.6091,2.6216,2.6294,2.6341,2.6414,2.6513,2.6596,2.6615,2.6647,2.6657,2.6677,2.6598,2.659,2.6582,2.6559,2.6664,2.6664,2.6753,2.6754,2.6755]}]]